DL2RXE-13 Weather Reports


time (UTC)temp
C
wind
direction
speed
KPH
gust
KPH
rain 1hr
cm
rain 24hr
cm
rain mn
cm
humidity
%
barometer
mb
20260507153030 7 0.0 0.0 0.08 0.28 0.28 96 1016.1
20260507152029 7 0.0 0.0 0.08 0.25 0.25 95 1016.0
20260507151030 7 0.0 0.0 0.13 0.25 0.25 95 1016.0
20260507150030 7 0.0 0.0 0.13 0.23 0.23 95 1016.1
20260507145030 7 0.0 0.0 0.15 0.23 0.23 95 1016.0
20260507144029 7 0.0 0.0 0.15 0.20 0.20 95 1015.9
20260507143030 7 0.0 0.0 0.18 0.20 0.20 95 1015.8
20260507142050 7 0.0 0.0 0.15 0.18 0.18 95 1015.8
20260507141029 7 0.0 0.0 0.10 0.13 0.13 95 1015.7
20260507140029 7 0.0 0.0 0.08 0.10 0.10 94 1015.7
20260507135030 7 0.0 0.0 0.05 0.08 0.08 94 1015.6
20260507134030 7 0.0 0.0 0.03 0.05 0.05 94 1015.7
20260507133051 7 0.0 0.0 0.03 0.03 0.03 93 1015.6
20260507132122 7 0.0 0.0 0.03 0.03 0.03 93 1015.4
20260507131043 7 0.0 0.0 0.03 0.03 0.03 94 1015.4
20260507130051 7 0.0 0.0 0.03 0.03 0.03 94 1015.4
20260507125047 7 0.0 0.0 0.03 0.03 0.03 93 1015.3
20260507124042 7 0.0 0.0 0.03 0.03 0.03 93 1015.2
20260507123050 7 0.0 0.0 0.00 0.00 0.00 91 1015.1
20260507122048 8 0.0 0.0 0.00 0.00 0.00 90 1015.0
20260507121043 8 0.0 0.0 0.00 0.00 0.00 90 1014.9
20260507120029 8 0.0 0.0 0.00 0.00 0.00 89 1014.8
20260507115029 8 0.0 0.0 0.00 0.00 0.00 87 1014.7
20260507114029 8 0.0 0.0 0.00 0.00 0.00 87 1014.5
20260507113029 8 0.0 0.0 0.00 0.00 0.00 88 1014.3
20260507112050 8 0.0 0.0 0.00 0.00 0.00 89 1014.4
20260507111030 7 0.0 0.0 0.00 0.00 0.00 90 1014.4
20260507110029 7 0.0 0.0 0.00 0.00 0.00 90 1014.3
20260507105029 7 0.0 0.0 0.00 0.00 0.00 90 1014.3
20260507104029 7 0.0 0.0 0.00 0.00 0.00 90 1014.3
20260507103029 7 0.0 0.0 0.00 0.00 0.00 90 1014.1
20260507102031 7 0.0 0.0 0.00 0.00 0.00 90 1014.1
20260507101029 7 0.0 0.0 0.00 0.00 0.00 89 1014.0
20260507100042 7 0.0 0.0 0.00 0.00 0.00 90 1014.1
20260507095047 7 0.0 0.0 0.00 0.00 0.00 90 1013.9
20260507094050 7 0.0 0.0 0.00 0.00 0.00 90 1013.8
20260507093042 7 0.0 0.0 0.00 0.00 0.00 90 1013.7
20260507092042 7 0.0 0.0 0.00 0.00 0.00 90 1013.4
20260507091044 7 0.0 0.0 0.00 0.00 0.00 90 1013.5
20260507090041 7 0.0 0.0 0.00 0.00 0.00 91 1013.3
20260507085042 7 0.0 0.0 0.00 0.00 0.00 91 1013.2
20260507084043 7 0.0 0.0 0.00 0.00 0.00 91 1013.0
20260507083030 7 0.0 0.0 0.00 0.00 0.00 92 1012.9
20260507082029 7 0.0 0.0 0.00 0.00 0.00 92 1012.7
20260507081029 7 0.0 0.0 0.00 0.00 0.00 92 1012.6
20260507080029 7 0.0 0.0 0.00 0.00 0.00 91 1012.5
20260507075110 7 0.0 0.0 0.00 0.00 0.00 91 1012.4
20260507074029 7 0.0 0.0 0.00 0.00 0.00 91 1012.3
20260507073030 7 0.0 0.0 0.00 0.00 0.00 91 1012.2
20260507072030 7 0.0 0.0 0.00 0.00 0.00 91 1012.0
20260507071031 7 0.0 0.0 0.00 0.00 0.00 91 1012.0
20260507070029 7 0.0 0.0 0.00 0.00 0.00 91 1011.9
20260507065029 7 0.0 0.0 0.00 0.00 0.00 91 1011.9
20260507064029 7 0.0 0.0 0.00 0.03 0.00 91 1011.9
20260507063042 6 0.0 0.0 0.00 0.03 0.00 92 1011.7
20260507062042 6 0.0 0.0 0.00 0.03 0.00 92 1011.6
20260507061047 6 0.0 0.0 0.00 0.03 0.00 93 1011.7
20260507060051 6 0.0 0.0 0.00 0.05 0.00 93 1011.4
20260507055043 6 0.0 0.0 0.00 0.10 0.00 92 1011.1
20260507054047 6 0.0 0.0 0.00 0.13 0.00 92 1011.0
20260507053048 6 0.0 0.0 0.00 0.15 0.00 92 1011.0
20260507052032 6 0.0 0.0 0.00 0.18 0.00 92 1011.0
20260507051030 6 0.0 0.0 0.00 0.18 0.00 93 1010.9
20260507050052 6 0.0 0.0 0.00 0.20 0.00 93 1010.9
20260507045029 6 0.0 0.0 0.00 0.20 0.00 93 1010.8
20260507044051 6 0.0 0.0 0.00 0.23 0.00 94 1010.8
20260507043030 6 0.0 0.0 0.00 0.25 0.00 94 1010.7
20260507042031 6 0.0 0.0 0.00 0.25 0.00 95 1010.6
20260507041029 6 0.0 0.0 0.00 0.28 0.00 95 1010.4
20260507040029 6 0.0 0.0 0.00 0.28 0.00 95 1010.3
20260507035050 6 0.0 0.0 0.00 0.30 0.00 95 1010.4
20260507034029 6 0.0 0.0 0.00 0.30 0.00 94 1010.5
20260507033029 6 0.0 0.0 0.00 0.30 0.00 94 1010.5
20260507032030 6 0.0 0.0 0.00 0.30 0.00 94 1010.3
20260507031029 6 0.0 0.0 0.00 0.30 0.00 95 1010.3
20260507030043 6 0.0 0.0 0.00 0.30 0.00 95 1010.2
20260507025047 6 0.0 0.0 0.00 0.30 0.00 95 1010.1
20260507024102 6 0.0 0.0 0.00 0.33 0.00 96 1009.9
20260507023052 6 0.0 0.0 0.00 0.36 0.00 95 1009.8
20260507022044 6 0.0 0.0 0.00 0.38 0.00 95 1009.9
20260507021042 7 0.0 0.0 0.00 0.41 0.00 94 1009.8
20260507020031 7 0.0 0.0 0.00 0.46 0.00 94 1009.6
20260507015029 7 0.0 0.0 0.00 0.48 0.00 94 1009.5
20260507014049 7 0.0 0.0 0.00 0.53 0.00 93 1009.5
20260507013031 8 0.0 0.0 0.00 0.58 0.00 93 1009.5
20260507012029 8 0.0 0.0 0.00 0.66 0.00 92 1009.4
20260507011029 8 0.0 0.0 0.00 0.74 0.00 91 1009.2
20260507010029 8 0.0 0.0 0.00 0.86 0.00 91 1009.1
20260507005031 9 0.0 0.0 0.00 0.94 0.00 90 1009.1
20260507004029 9 0.0 0.0 0.00 1.02 0.00 91 1008.9
20260507003030 9 0.0 0.0 0.00 1.09 0.00 90 1008.8
20260507002029 9 0.0 0.0 0.00 1.19 0.00 90 1008.7
20260507001030 9 0.0 0.0 0.00 1.27 0.00 91 1008.7
20260507000111 9 0.0 0.0 0.00 1.35 0.00 91 1008.5
20260506235109 9 0.0 0.0 0.00 1.40 0.00 91 1008.8
20260506234030 9 0.0 0.0 0.00 1.45 0.00 91 1008.7
20260506233109 9 0.0 0.0 0.00 1.50 0.00 91 1008.9
20260506232109 9 0.0 0.0 0.00 1.52 0.00 91 1008.8
20260506231029 10 0.0 0.0 0.00 1.55 0.00 91 1008.8
20260506230050 10 0.0 0.0 0.00 1.60 0.00 91 1008.7
20260506225047 10 0.0 0.0 0.00 1.63 0.00 91 1008.5
20260506224047 10 0.0 0.0 0.00 1.65 0.00 91 1008.6
20260506223110 10 0.0 0.0 0.00 1.68 0.00 90 1008.6
20260506222046 10 0.0 0.0 0.00 1.70 0.00 90 1008.7
20260506221047 10 0.0 0.0 0.00 1.73 0.00 90 1008.4
20260506220052 10 0.0 0.0 0.00 1.75 0.00 90 1008.4
20260506215047 10 0.0 0.0 0.00 1.75 1.75 89 1008.4
20260506214102 10 0.0 0.0 0.00 1.78 1.75 89 1008.5
20260506213051 10 0.0 0.0 0.00 1.78 1.75 89 1008.5
20260506212042 10 0.0 0.0 0.00 1.78 1.75 89 1008.5
20260506211041 10 0.0 0.0 0.00 1.78 1.75 89 1008.3
20260506210042 10 0.0 0.0 0.00 1.78 1.75 89 1008.3
20260506205043 10 0.0 0.0 0.00 1.78 1.75 90 1008.2
20260506204048 10 0.0 0.0 0.00 1.78 1.75 90 1008.2
20260506203052 11 0.0 0.0 0.00 1.78 1.75 91 1008.2
20260506202030 11 0.0 0.0 0.00 1.78 1.75 91 1008.3
20260506201033 11 0.0 0.0 0.00 1.78 1.75 91 1008.0
20260506200029 11 0.0 0.0 0.00 1.78 1.75 91 1008.0
20260506195030 11 0.0 0.0 0.00 1.78 1.75 90 1008.0
20260506194032 11 0.0 0.0 0.00 1.78 1.75 90 1008.0
20260506193029 11 0.0 0.0 0.00 1.78 1.75 90 1007.7
20260506192029 11 0.0 0.0 0.00 1.78 1.75 90 1007.5
20260506191030 11 0.0 0.0 0.00 1.78 1.75 90 1007.5
20260506190030 11 0.0 0.0 0.00 1.78 1.75 90 1007.4
20260506185050 11 0.0 0.0 0.00 1.78 1.75 90 1007.2
20260506184029 11 0.0 0.0 0.00 1.78 1.75 91 1007.1
20260506183029 11 0.0 0.0 0.00 1.78 1.75 91 1007.1
20260506182029 11 0.0 0.0 0.00 1.78 1.75 91 1007.0
20260506181029 11 0.0 0.0 0.00 1.78 1.75 91 1006.9
20260506180048 11 0.0 0.0 0.00 1.78 1.75 91 1006.9
20260506175107 12 0.0 0.0 0.00 1.78 1.75 91 1006.8
20260506174046 12 0.0 0.0 0.00 1.78 1.75 91 1006.6
20260506173044 12 0.0 0.0 0.00 1.78 1.75 91 1006.7
20260506172042 12 0.0 0.0 0.00 1.78 1.75 91 1006.7
20260506171042 12 0.0 0.0 0.00 1.78 1.75 91 1006.6
20260506170105 12 0.0 0.0 0.00 1.78 1.75 90 1006.7
20260506165049 12 0.0 0.0 0.00 1.78 1.75 89 1006.5
20260506164046 12 0.0 0.0 0.00 1.78 1.75 88 1006.5
20260506163050 13 0.0 0.0 0.00 1.78 1.75 87 1006.4
20260506162045 13 0.0 0.0 0.00 1.78 1.75 87 1006.4
20260506161043 12 0.0 0.0 0.00 1.78 1.75 87 1006.5
20260506160044 13 0.0 0.0 0.00 1.78 1.75 87 1006.6
20260506155047 13 0.0 0.0 0.00 1.78 1.75 87 1006.7
20260506154042 13 0.0 0.0 0.00 1.78 1.75 88 1006.7